Temp
8 8 8 8 8 9 9 8 9 9 9 9 9 10 10 10 11 16 19 17 16 17 17 18 22 24 24 25 27 28 26 27 28 31 33 36 36 38 39 39 39 39 37 36 34
8 8 8 8 8 9 9 9 9 9 9 9 9 9 10 10 11 17 16 17 17 16 16 22 25 26 25 26 26 26 26 26 29 31 32 35 36 37 38 37 37 38 35 34 34
8 8 8 8 9 9 9 9 9 9 9 9 9 9 10 10 16 19 16 17 17 15 17 20 23 24 25 26 27 26 26 28 29 31 32 33 35 37 37 36 36 37 34 34 34
8 9 10 11 11 11 9 9 9 9 9 9 9 10 10 12 21 18 17 17 17 16 18 22 24 24 24 25 27 26 27 28 28 29 30 31 33 34 36 36 38 38 35 34 34
11 11 14 14 14 13 12 10 11 10 11 9 10 10 11 17 22 17 17 17 17 20 22 23 23 24 24 25 27 27 27 28 29 29 29 30 31 32 34 36 37 38 38 34 33
12 11 14 15 15 14 13 12 13 12 12 11 11 11 14 21 20 20 19 20 20 21 22 24 23 25 23 24 25 27 27 27 28 28 29 29 29 31 32 34 36 36 36 35 33
12 11 12 15 16 16 15 15 13 13 13 12 12 11 18 21 20 20 21 21 21 21 22 23 23 23 23 24 26 26 25 26 27 28 28 29 28 29 32 33 34 35 34 35 35
11 10 12 16 17 16 16 15 14 13 13 13 12 13 21 21 20 21 21 22 22 21 21 22 22 22 22 23 24 24 24 23 26 27 27 27 26 29 31 31 32 34 34 34 33
13 11 13 17 17 17 16 15 14 13 13 13 13 17 22 21 21 22 21 21 21 21 21 21 21 21 22 22 22 23 22 24 25 27 27 26 26 28 31 31 31 33 34 34 35
14 13 15 18 18 17 16 15 13 13 13 14 16 20 22 23 22 21 21 21 22 23 22 21 21 21 22 21 20 23 21 24 25 27 26 26 26 28 30 31 31 32 34 33 33
15 15 17 18 18 17 17 15 20 17 17 22 23 23 24 22 22 23 22 22 22 22 21 22 21 21 21 18 17 22 19 20 24 27 27 26 26 27 29 31 31 32 33 33 33
15 16 17 18 18 17 16 22 22 21 20 24 23 23 23 22 22 23 22 21 22 21 23 22 20 22 22 17 16 21 20 19 24 26 25 26 27 28 29 30 32 32 33 33 33
16 17 17 18 18 17 20 22 21 20 20 24 24 23 24 23 22 22 23 22 21 21 22 22 23 23 22 21 21 21 22 22 23 22 22 23 26 28 29 30 31 32 33 33 33
15 17 18 18 16 23 23 21 21 19 18 23 23 24 24 24 21 23 23 22 21 21 22 22 23 22 21 21 21 20 22 23 23 21 19 25 22 26 28 29 30 31 32 33 33
15 17 18 17 17 23 22 21 20 20 19 25 25 25 25 23 22 22 22 22 20 20 21 20 21 22 21 22 22 20 22 22 23 23 22 22 23 26 28 28 30 30 32 33 33
15 17 18 20 18 22 22 21 20 20 21 24 25 24 23 23 23 23 22 21 21 19 20 20 22 22 22 22 22 23 21 22 22 22 21 23 23 26 28 28 29 31 32 33 34
16 17 18 18 22 22 21 22 21 21 24 23 22 23 23 21 21 22 21 20 16 15 18 21 20 22 22 21 22 22 20 19 20 20 20 24 24 27 30 29 30 30 31 33 34
17 18 18 20 22 21 21 21 21 23 22 23 22 22 22 21 20 19 20 19 21 16 13 17 17 19 22 21 21 20 21 19 17 20 22 26 25 28 31 31 31 32 32 32 33
17 21 20 22 22 21 22 21 21 21 22 20 21 21 21 21 20 20 19 18 19 17 16 18 18 21 22 22 22 20 19 20 17 19 20 23 27 29 31 31 31 32 31 32 32
13 21 24 23 22 21 22 20 23 23 22 20 19 20 19 20 19 19 17 19 17 17 16 18 17 21 21 22 22 21 17 19 20 18 19 25 27 27 29 30 32 32 31 32 32
15 25 23 23 22 24 22 22 22 22 22 20 20 19 20 19 19 18 17 17 15 16 14 14 16 18 19 20 21 21 20 21 21 21 21 21 25 30 30 30 31 32 33 32 32
18 24 24 23 24 23 22 22 20 22 22 21 21 20 19 19 18 17 16 13 15 14 12 15 16 17 19 21 23 22 21 22 20 21 23 23 22 26 29 31 31 32 33 33 33
19 24 24 24 22 21 21 21 23 22 22 21 20 20 20 18 16 15 15 16 15 12 12 15 16 16 19 21 20 20 22 22 22 22 21 21 23 28 28 31 31 32 33 33 33
20 23 23 23 23 21 20 21 21 23 22 21 20 21 20 19 20 17 17 15 13 13 13 12 14 16 17 18 16 18 21 22 21 20 21 23 24 25 27 25 23 25 30 33 30
21 21 21 19 19 20 21 22 21 20 21 21 20 20 20 17 18 16 18 15 13 13 12 12 12 15 17 19 19 17 17 20 20 21 21 23 24 25 25 24 23 23 23 26 21
18 18 19 19 20 21 21 21 20 20 20 20 19 20 20 19 19 18 17 14 13 15 13 12 12 14 14 16 18 17 18 18 18 17 20 23 23 22 24 24 23 22 21 26 22
17 17 18 18 20 20 20 20 20 20 20 21 21 20 20 21 20 20 19 18 17 15 13 12 11 12 13 15 13 14 17 16 17 19 21 21 24 25 23 23 23 21 21 22 24
Height
816 813 810 807 804 801 798 796 793 790 788 785 783 780 777 774 771 768 764 765 764 762 760 758 753 749 748 745 739 736 748 743 732 721 709 683 682 666 665 672 668 665 672 675 689
815 812 809 807 804 801 798 795 793 790 787 785 782 780 778 775 773 766 764 762 762 761 761 753 746 741 742 740 740 739 742 738 720 710 704 689 681 671 674 678 682 676 676 684 693
815 811 808 805 802 799 797 794 792 789 786 783 781 778 777 776 769 760 762 762 762 761 761 756 751 746 742 734 733 735 738 724 716 710 702 695 685 671 674 686 684 681 683 688 694
814 810 807 803 800 798 795 793 790 787 784 782 779 776 775 776 759 762 762 762 761 760 759 752 747 747 745 741 726 734 724 721 719 711 708 703 689 684 673 675 670 668 676 682 690
812 809 805 802 799 796 793 791 788 784 782 779 778 777 775 768 756 762 761 761 761 757 753 748 746 742 742 734 726 725 720 717 713 713 709 704 701 691 682 666 669 666 666 678 689
811 806 803 800 797 794 791 788 786 783 781 779 778 777 776 758 761 762 762 760 758 755 751 746 745 740 741 736 732 721 716 715 714 713 710 712 704 693 683 674 672 670 670 673 684
809 804 800 797 795 793 789 787 785 783 781 779 778 778 771 762 761 760 759 757 757 756 753 749 746 747 741 737 725 725 730 722 716 712 712 708 715 704 684 679 676 672 677 674 673
807 802 797 795 793 791 788 785 784 782 780 779 778 779 762 761 760 758 756 754 752 754 754 751 749 748 746 738 731 733 730 735 716 712 712 716 723 702 688 689 683 675 677 678 679
805 800 795 793 791 789 786 784 783 781 780 779 779 774 757 759 757 755 755 754 753 752 753 752 752 751 744 744 741 731 737 727 718 704 709 714 716 701 691 692 688 680 677 678 674
804 798 794 792 790 788 784 782 781 780 778 780 777 773 759 756 754 755 754 755 751 748 749 751 748 749 742 742 747 731 736 717 712 700 703 706 706 699 689 686 688 682 676 678 680
803 797 793 791 789 786 782 782 778 779 779 764 757 756 751 756 753 750 752 752 748 746 748 738 748 745 740 759 756 726 746 736 708 691 693 695 700 697 687 681 681 677 673 677 677
802 796 793 790 788 786 783 776 776 777 770 753 756 754 752 755 752 748 751 752 745 745 731 737 745 734 732 750 758 736 735 739 709 691 697 690 689 687 680 676 670 672 669 672 673
801 796 793 790 786 783 778 776 775 774 770 748 750 751 749 752 751 747 746 744 745 743 736 736 728 726 732 733 735 731 726 719 709 708 706 702 686 679 674 667 661 660 664 667 668
800 795 793 789 787 777 775 777 775 776 778 749 750 746 744 743 752 745 743 745 743 744 734 730 719 724 730 730 729 736 720 712 709 723 737 695 721 682 673 671 665 658 657 660 664
798 794 792 788 786 777 779 776 777 777 785 741 741 740 736 742 750 746 745 743 747 744 740 734 730 724 725 723 718 729 724 718 711 709 714 712 708 679 668 673 665 661 655 656 657
798 793 791 788 784 780 777 776 776 780 775 748 740 746 745 739 741 740 743 745 742 744 737 733 723 722 720 718 718 716 725 720 712 713 722 695 706 678 663 664 660 655 652 650 651
796 792 789 789 783 779 777 772 778 774 752 756 758 750 743 749 746 743 745 745 762 761 743 724 723 711 713 720 716 717 729 737 728 724 719 682 684 661 636 643 645 649 648 645 646
792 789 786 784 781 778 776 775 781 761 767 760 760 750 750 752 753 752 746 746 732 747 763 743 733 723 708 715 718 721 718 728 739 718 701 667 675 644 619 620 627 635 641 644 642
789 784 784 782 779 778 774 778 777 772 767 768 761 758 754 749 750 748 748 747 741 747 750 736 732 713 705 704 711 716 725 720 741 723 717 676 647 632 620 622 622 629 638 641 640
793 784 778 780 778 777 775 781 769 763 767 769 771 764 765 753 757 754 755 744 751 748 751 737 737 712 711 708 703 708 732 725 721 723 712 664 647 645 633 626 616 625 631 633 637
793 777 777 776 774 769 775 772 767 766 766 771 768 766 759 756 756 755 757 752 758 754 757 754 746 727 720 715 707 708 715 709 704 702 703 695 656 618 623 619 618 617 621 629 632
798 782 775 776 770 773 778 772 768 762 760 762 761 758 758 756 757 759 762 767 758 758 760 751 741 732 717 704 695 697 703 699 710 700 682 684 672 636 626 617 616 614 614 623 626
804 781 776 776 785 784 777 774 762 762 760 761 764 757 755 758 761 762 760 753 754 761 761 747 739 734 714 703 705 705 695 698 694 693 694 692 668 627 625 616 617 618 612 621 623
808 791 783 780 778 785 783 774 770 754 760 759 758 752 748 751 745 751 746 749 754 754 757 759 746 730 726 717 725 714 700 691 695 705 693 671 664 654 642 649 649 641 626 616 630
810 803 802 798 791 786 777 771 767 767 760 756 754 751 751 754 745 751 739 744 750 750 753 755 745 735 719 708 706 717 715 698 701 694 696 661 662 656 656 655 656 656 649 641 651
821 820 810 804 790 781 773 773 771 766 762 758 757 750 747 745 740 736 738 744 749 740 746 751 744 735 726 715 706 706 703 704 702 706 688 663 662 662 656 654 657 660 664 629 643
827 825 815 800 786 783 779 778 770 764 758 752 746 745 740 734 731 726 724 724 730 736 743 744 744 734 720 715 722 708 692 696 691 681 671 670 651 655 661 664 663 665 668 652 642
Wind_Speed
16 15 15 16 15 15 15 15 16 16 17 17 17 19 20 20 20 19 15 3 5 12 14 14 13 11 11 15 17 19 16 18 26 25 20 22 24 22 22 17 15 18 21 20 29
17 16 16 16 16 16 16 16 16 16 16 17 17 19 18 17 18 16 1 3 6 7 9 14 12 7 9 12 15 17 16 25 23 23 23 23 25 26 18 15 19 22 21 24 24
17 16 16 15 16 16 16 16 16 17 18 17 18 17 16 13 12 6 2 1 5 7 11 14 13 13 14 14 16 19 21 22 21 24 26 27 24 26 18 18 21 23 21 19 18
18 17 16 16 16 17 17 17 17 18 17 17 15 13 12 9 4 6 4 3 5 10 15 14 9 11 14 15 16 19 22 24 23 25 25 25 23 27 25 15 20 24 23 21 20
21 19 16 15 16 17 18 18 18 18 15 12 9 8 9 8 6 3 6 6 9 11 11 11 11 12 15 14 17 19 19 20 22 25 23 25 22 26 22 14 20 20 19 25 17
26 22 18 15 15 17 19 19 17 14 11 9 5 5 8 7 4 2 3 6 8 10 12 11 11 14 13 18 16 19 17 17 17 23 23 24 22 23 19 18 22 7 6 21 23
29 25 19 15 14 16 18 18 16 11 8 7 4 7 14 6 4 5 7 8 8 9 11 13 12 11 14 15 17 17 18 16 21 19 21 19 24 25 21 22 20 11 8 12 21
32 27 21 13 13 14 16 16 11 7 6 5 3 7 5 2 6 7 7 11 6 8 11 15 11 12 15 17 20 20 15 16 20 19 20 24 26 24 21 21 24 20 14 15 13
37 28 20 12 13 14 14 14 8 7 6 5 6 7 1 3 5 8 7 9 9 6 6 11 7 13 15 15 14 16 16 20 21 19 20 27 28 27 23 22 22 19 13 16 11
40 27 16 12 13 12 14 15 12 8 7 9 14 9 10 7 13 9 6 5 9 6 8 9 10 12 13 13 14 13 14 18 20 17 21 27 28 25 25 26 24 23 18 15 14
40 26 14 11 12 8 14 6 4 6 11 13 8 6 8 10 6 5 3 7 9 9 11 13 10 11 14 12 20 21 14 21 20 23 22 26 26 27 24 24 24 24 21 17 17
40 22 13 12 13 8 12 7 12 10 11 9 5 10 5 4 13 5 1 7 11 13 13 8 11 15 10 7 22 15 11 24 20 11 14 19 27 29 26 25 24 24 17 18 17
39 18 13 15 15 12 13 17 11 10 6 8 7 6 5 6 11 9 7 9 14 15 16 15 14 8 12 11 13 16 18 17 17 14 19 25 21 24 28 25 20 26 21 21 19
39 14 12 14 9 14 17 15 12 4 4 7 10 4 8 3 4 6 10 12 13 17 18 14 14 14 10 17 8 14 17 20 17 4 7 16 12 20 24 22 21 18 18 20 20
38 11 9 10 13 12 15 12 7 3 2 7 3 2 10 6 8 2 7 8 13 15 16 19 12 15 15 17 8 14 12 17 17 13 15 18 15 18 21 26 24 22 19 21 24
34 11 9 8 8 14 17 10 6 5 4 9 18 17 14 9 10 8 6 9 15 18 16 19 21 16 17 3 10 10 10 20 12 13 14 21 18 19 20 26 24 23 22 23 21
34 11 6 10 11 18 15 11 6 2 17 13 23 20 19 8 12 9 11 13 6 6 14 14 17 21 20 18 13 12 7 9 10 11 14 23 20 18 26 31 27 25 24 19 20
30 7 7 8 17 14 12 9 8 15 14 19 18 21 12 6 13 16 13 19 15 11 3 10 11 10 13 19 15 14 14 10 8 5 11 22 20 18 13 29 28 27 23 21 21
28 8 7 6 12 10 8 7 6 12 14 16 19 13 16 18 15 14 17 13 14 8 7 11 3 15 13 13 11 13 17 4 4 18 16 13 21 19 13 13 26 26 25 25 25
22 12 2 13 10 9 8 8 13 10 12 14 15 14 20 19 18 19 12 8 18 12 15 10 15 11 6 8 13 16 2 8 8 5 8 10 17 12 14 14 18 26 29 26 25
5 5 3 18 10 8 6 10 15 12 11 10 19 17 19 17 18 21 7 14 4 12 12 10 8 10 7 12 11 10 15 13 14 12 13 9 8 10 15 10 9 24 25 25 25
12 6 8 17 5 6 9 17 14 11 12 14 12 13 17 19 20 14 8 7 10 9 6 5 5 9 14 17 13 15 15 14 9 16 13 11 13 15 7 15 11 14 23 25 22
8 11 5 13 8 8 14 15 11 14 13 15 11 15 19 17 8 8 10 7 8 4 4 4 6 8 10 10 11 15 14 15 14 13 20 15 13 10 15 7 14 13 17 23 23
5 7 9 11 11 14 16 15 18 12 12 14 17 15 16 18 18 12 19 2 8 12 14 6 6 12 10 6 5 8 15 15 16 13 18 22 22 15 13 16 21 19 12 25 17
5 7 9 8 12 16 20 16 20 19 16 17 17 15 18 19 19 8 18 5 7 7 6 4 6 15 21 21 18 14 21 22 18 21 20 28 22 15 12 13 17 20 22 18 30
6 6 8 15 15 19 16 16 19 19 20 16 14 19 19 19 16 24 19 3 5 7 9 5 5 9 20 20 21 23 17 27 24 29 28 31 26 4 10 13 15 20 24 14 27
13 16 6 9 14 14 14 19 23 22 14 19 18 18 18 19 21 18 18 12 10 8 10 5 4 5 11 13 17 12 25 27 28 29 30 27 24 12 10 12 14 20 22 18 29
Wind_Direction
348 345 342 337 337 335 333 332 331 330 328 325 321 318 320 323 323 307 245 296 315 302 296 293 272 261 236 255 241 242 245 245 248 250 252 264 267 226 240 249 256 268 73 108 121
344 339 336 334 330 328 327 328 329 326 321 318 317 312 314 319 314 286 276 325 312 307 306 292 292 247 244 238 238 233 238 241 254 259 266 265 264 269 215 204 241 257 105 117 136
345 339 334 330 328 326 325 323 323 320 317 313 309 304 309 318 290 86 112 340 331 303 285 286 291 284 275 254 239 236 245 255 249 259 274 276 270 270 254 202 225 239 133 139 151
345 338 333 328 325 326 322 323 321 317 314 309 304 304 304 300 11 108 342 298 305 295 276 271 266 264 262 263 249 248 244 247 259 274 278 277 282 281 271 208 226 240 153 154 164
349 337 330 327 324 325 325 320 327 323 326 322 313 310 312 231 54 118 345 275 294 286 265 284 279 283 268 269 267 258 249 261 253 256 270 273 282 279 288 205 250 241 233 155 163
357 344 327 319 322 323 323 326 337 337 339 333 323 308 268 284 26 32 324 295 268 287 281 274 283 305 309 289 284 283 281 270 260 265 250 263 269 273 270 282 228 179 272 165 163
358 348 331 317 320 323 323 331 338 334 337 338 321 299 283 31 312 291 286 289 295 294 288 275 267 286 297 283 259 267 274 272 267 255 255 255 254 263 248 264 273 188 196 240 165
357 349 341 318 318 323 322 329 330 320 328 324 297 295 288 47 312 260 318 302 247 295 277 278 307 285 279 282 283 277 267 253 249 232 243 253 241 242 249 257 262 233 182 237 203
358 351 345 329 321 324 315 316 315 309 296 271 289 227 309 239 255 327 281 317 323 282 276 272 293 273 274 259 257 255 252 248 244 243 238 232 239 240 231 240 250 252 207 216 204
356 352 346 340 335 328 312 306 290 277 274 246 260 271 244 338 333 323 276 295 290 288 253 221 240 251 244 242 253 260 308 269 253 244 224 232 234 235 237 222 234 244 221 205 207
355 350 344 342 336 314 318 291 282 209 229 275 317 326 325 345 316 255 273 285 255 240 270 205 281 275 281 314 309 298 279 280 285 270 236 228 225 234 235 237 216 231 209 197 187
355 348 341 337 327 293 298 309 352 297 302 276 259 262 232 272 289 341 176 279 273 275 296 252 250 285 293 150 254 289 276 274 254 277 308 271 221 220 224 235 218 219 211 199 206
356 345 337 330 322 283 246 1 336 327 275 200 223 283 315 313 300 298 242 275 281 280 280 281 276 260 270 273 281 275 271 272 289 6 316 293 247 208 221 229 238 197 211 212 197
354 341 334 328 318 319 358 341 340 353 287 178 201 160 300 320 292 271 282 314 287 276 278 289 293 267 239 269 246 266 279 285 268 285 263 278 239 240 208 223 229 228 207 188 208
352 335 328 314 304 337 339 344 331 249 325 18 27 324 299 227 296 85 315 285 284 294 297 275 298 280 236 240 246 261 283 292 282 262 262 257 260 237 211 214 213 221 209 204 198
352 332 324 329 262 319 334 329 273 240 5 341 3 344 322 10 337 329 273 247 281 286 258 260 270 257 278 247 285 249 283 284 254 264 252 257 234 227 206 208 214 204 222 201 182
349 328 280 303 326 330 328 295 264 353 349 5 337 334 311 342 329 321 306 302 272 297 268 294 246 250 240 256 244 234 238 265 230 225 238 244 244 248 210 199 202 205 207 205 187
345 304 266 253 327 331 309 272 287 355 335 338 332 314 354 0 336 319 338 314 314 227 292 276 323 271 241 228 244 268 224 242 263 234 273 239 224 237 219 188 199 195 201 196 210
344 287 260 347 329 328 295 336 7 339 331 331 325 337 334 340 334 324 327 352 4 328 251 322 268 311 218 238 241 224 243 200 217 272 267 268 218 234 227 232 188 189 193 192 207
332 292 77 337 326 306 289 318 343 358 338 336 328 329 323 331 341 332 323 354 340 344 355 298 304 305 37 309 232 253 283 244 208 261 234 241 209 204 205 211 185 188 186 182 206
292 287 77 348 307 282 318 342 331 342 344 316 318 318 313 329 333 321 300 309 337 325 321 308 265 285 325 238 257 224 226 235 265 279 296 322 235 188 171 220 216 183 182 174 203
307 335 26 347 351 342 342 334 307 313 315 319 311 312 319 323 319 321 297 232 269 318 291 231 286 270 262 242 283 205 262 243 252 277 270 287 279 304 314 195 231 212 173 175 206
310 306 35 335 344 341 335 326 332 324 325 332 320 321 307 308 310 292 286 273 291 238 269 336 243 271 256 219 217 258 212 247 268 275 274 281 271 287 353 208 205 226 184 177 203
290 321 340 325 6 346 327 318 324 338 341 327 314 302 312 327 317 308 301 293 242 246 234 263 259 258 267 286 304 279 262 246 233 247 257 255 266 279 314 353 345 333 294 181 134
344 348 1 314 326 320 307 318 326 331 334 318 318 314 324 316 321 295 311 332 250 238 223 221 263 261 267 271 277 236 247 250 255 259 241 260 254 262 304 320 320 324 316 290 127
1 331 327 299 312 303 326 342 324 318 323 322 316 312 313 305 326 325 318 321 256 175 186 196 266 258 265 269 278 275 267 247 233 246 252 250 257 304 322 310 310 327 325 152 133
343 332 290 290 315 322 337 318 321 323 319 309 308 301 306 324 321 308 288 279 240 242 203 212 226 225 253 254 274 257 246 230 235 235 232 242 246 245 275 294 305 304 316 259 139